#timestamp,LO_Frequency,Hit,StdDev 
1549648815.1,286047000.8,N
1549648816.0,286047000.8,N
1549648835.8,286047002.4,N
1549648855.6,286046999.9,N
1549648875.5,286046999.8,N
1549648895.3,286047000.6,N
1549648915.2,286047000.6,N
1549648935.9,286047002.2,N
1549648955.7,286046999.8,N
1549648975.6,286047000.9,N
1549648995.4,286046998.1,N
1549649015.2,286047000.6,N
1549649035.1,286046998.1,N
1549649036.0,286046998.1,N
1549649055.8,286047000.5,N
1549649075.7,286047000.1,N
1549649095.5,286047000.6,N
1549649115.3,286047000.2,N
1549649135.2,286047000.0,N
1549649155.0,286046999.8,N
1549649155.9,286046999.8,N
1549649175.7,286047000.4,N
1549649195.6,286047002.8,N
1549649215.4,286047000.1,N
1549649235.3,286047000.2,N
1549649255.1,286047000.1,N
1549649256.0,286047000.1,N
1549649275.8,286047000.2,N
1549649295.7,286047002.8,N
1549649315.5,286046998.1,N
1549649335.4,286046998.5,N
1549649355.2,286046999.1,N
1549649375.0,286046999.0,N
1549649375.9,286046999.0,N
1549649395.8,286047000.5,N
1549649415.6,286047002.7,N
1549649435.5,286047000.1,N
1549649455.3,286047002.2,N
1549649475.1,286047002.7,N
1549649495.9,286047002.1,N
1549649515.7,286046999.9,N
1549649535.6,286047000.9,N
1549649555.4,286046998.5,N
1549649575.2,286046998.3,N
1549649595.1,286046998.9,N
1549649596.0,286046998.9,N
1549649615.8,286046999.6,N
1549649635.7,286046998.3,N
1549649655.5,286046999.1,N
1549649675.3,286046998.6,N
1549649695.2,286046999.0,N
1549649715.0,286046998.2,N
1549649715.9,286046998.2,N
1549649735.7,286046998.4,N
1549649755.6,286046998.5,N
1549649775.4,286047001.2,N
1549649795.3,286046998.8,N
1549649815.1,286046998.4,N
1549649835.8,286046998.1,N
1549649855.7,286046998.2,N
1549649875.5,286047000.4,N
1549649895.4,286047002.8,N
1549649915.2,286047000.5,N
1549649935.0,286047000.5,N
1549649935.9,286047000.5,N
1549649955.8,286046998.8,N
1549649975.6,286047001.2,N
1549649995.5,286047000.1,N
1549650015.3,286046998.6,N
1549650035.1,286046998.8,N
1549650055.9,286047000.3,N
1549650075.7,286047001.9,N
1549650095.5,286047001.9,N
1549650115.4,286047002.7,N
1549650135.2,286046999.7,N
1549650155.1,286046998.4,N
1549650156.0,286046998.4,N
1549650175.8,286046999.4,N
1549650195.6,286046998.6,N
1549650215.5,286047001.2,N
1549650235.3,286047001.1,N
1549650255.2,286046999.1,N
1549650275.9,286046998.6,N
1549650295.7,286047000.9,N
1549650315.6,286047000.5,N
1549650335.4,286047002.3,N
1549650355.3,286046998.6,N
1549650375.1,286046997.0,N
1549650376.0,286046997.0,N
1549650395.8,286046998.8,N
1549650415.7,286046998.6,N
1549650435.5,286047002.3,N
1549650455.3,286047000.6,N
1549650475.2,286046998.4,N
1549650495.0,286046999.1,N
1549650495.9,286046999.1,N
1549650515.8,286046998.7,N
1549650535.6,286047000.2,N
1549650555.4,286046999.8,N
1549650575.3,286047002.8,N
1549650595.1,286047001.8,N
1549650615.8,286047004.1,N
1549650635.7,286047004.0,N
1549650655.5,286047001.6,N
1549650675.4,286047002.6,N
1549650695.2,286047002.4,N
1549650715.0,286047000.1,N
1549650715.9,286047000.1,N
1549650735.8,286047002.3,N
1549650755.6,286047001.8,N
1549650775.5,286047002.8,N
1549650795.3,286047002.8,N
1549650815.1,286047000.6,N
1549650835.9,286047000.3,N
1549650855.7,286047001.1,N
1549650875.5,286046998.3,N
1549650895.4,286046999.4,N
1549650915.2,286046998.8,N
1549650935.1,286046996.5,N
1549650936.0,286046996.5,N
1549650955.8,286046997.1,N
1549650975.6,286046999.0,N
1549650995.5,286046996.8,N
1549651015.3,286046996.9,N
1549651035.1,286046998.6,N
1549651055.9,286046999.2,N
1549651075.7,286047001.5,N
1549651095.6,286047002.5,N
1549651115.4,286047000.6,N
1549651135.2,286047002.3,N
1549651155.1,286047003.5,N
1549651156.0,286047003.5,N
1549651175.8,286047001.8,N
1549651195.6,286047001.8,N
1549651215.5,286047003.9,N
1549651235.3,286047001.5,N
1549651255.2,286047002.3,N
1549651275.9,286047000.0,N
1549651295.7,286046999.8,N
1549651315.6,286047002.6,N
1549651335.4,286047000.2,N
1549651355.2,286047001.2,N
1549651375.1,286046998.3,N
1549651376.0,286046998.3,N
1549651395.8,286046999.2,N
1549651415.7,286046998.3,N
1549651465.5,286046998.5,E
1549651475.5,286047001.1,N
1549651495.3,286046999.9,P
1549651515.1,286046998.2,P
1549651535.9,286047000.4,N
1549651555.7,286047002.8,N
1549651575.5,286047002.3,N
1549651595.4,286047001.3,N
1549651615.2,286047004.3,N
1549651635.1,286047005.8,Y
1549651636.0,286047005.8,P
1549651655.8,286047001.3,N
1549651675.6,286047003.0,N
1549651695.5,286047001.8,N
1549651715.3,286047003.4,N
1549651735.1,286047004.1,N
1549651755.9,286047001.5,N
1549651775.7,286047002.8,N
1549651795.6,286047002.7,N
1549651815.4,286047002.8,N
1549651835.2,286047000.4,N
1549651855.1,286047000.4,N
1549651856.0,286047000.4,N
1549651875.8,286047000.2,N
1549651895.6,286047001.7,N
1549651915.5,286047002.5,N
1549651935.3,286047002.3,N
1549651955.2,286046998.2,N
1549651975.9,286046999.7,N
1549651995.7,286047002.0,N
1549652015.6,286046999.8,N
1549652035.4,286047004.3,N
1549652055.2,286047003.1,N
1549652075.1,286047001.3,N
1549652076.0,286047001.3,N
1549652095.8,286047001.4,N
1549652115.7,286047001.8,N
1549652135.5,286047002.7,N
1549652155.3,286047000.5,N
1549652175.2,286046998.7,N
1549652195.0,286047001.0,N
1549652195.9,286047001.0,N
1549652215.8,286047002.8,N
1549652235.6,286047003.7,N
1549652255.4,286047003.5,N
1549652275.3,286047003.0,N
1549652295.1,286047003.3,N
1549652315.9,286047001.5,N
1549652335.7,286047001.7,N
1549652355.5,286047004.0,N
1549652375.4,286047004.3,N
1549652395.2,286047004.0,N
